Location: Mococo
(38.0255°N, 122.1161°W)
Time: 01:46:55
(UTC+00:00)

Exosat Rocket - Pass Details

Date: 13 February 2026
Orbit: 761 x 2512 km, 72.3° (Epoch: 10 March)

Event Time Altitude Azimuth Distance (km) Brightness Sun altitude
Exits shadow 13:23:39 - 337° (NNW) 3,349 6.6 -19.7°
Reaches altitude 10° 13:25:46 10° 336° (NNW) 2,485 5.9 -19.2°
Maximum altitude 13:31:07 73° 252° (WSW) 807 3.4 -18.2°
Drops below altitude 10° 13:36:04 10° 168° (SSE) 2,305 6.2 -17.2°
Sets 13:38:27 0° 166° (SSE) 3,287 7.0 -16.7°
